| time (UTC) | temp F | wind direction | speed MPH | gust MPH | rain 1hr in | rain 24hr in | rain mn in | humidity % | barometer mb |
| 20260505223007 | 82 | 201 | 0.0 | 2.0 | 0.00 | 0.00 | 0.00 | 53 | 1001.9 |
| 20260505221555 | 83 | 201 | 0.0 | 2.0 | 0.00 | 0.00 | 0.00 | 53 | 1001.5 |
| 20260505220023 | 84 | 201 | 0.0 | 2.0 | 0.00 | 0.00 | 0.00 | 53 | 1001.5 |
| 20260505214552 | 87 | 199 | 0.0 | 2.0 | 0.00 | 0.00 | 0.00 | 49 | 1001.6 |
| 20260505213016 | 87 | 228 | 1.0 | 6.0 | 0.00 | 0.00 | 0.00 | 52 | 1001.6 |
| 20260505211603 | 88 | 175 | 0.0 | 2.0 | 0.00 | 0.00 | 0.00 | 48 | 1001.7 |
| 20260505210032 | 87 | 175 | 0.0 | 3.0 | 0.00 | 0.00 | 0.00 | 47 | 1002.0 |
| 20260505204606 | 86 | 202 | 0.0 | 4.0 | 0.00 | 0.00 | 0.00 | 46 | 1002.2 |
| 20260505203022 | 85 | 192 | 0.0 | 3.0 | 0.00 | 0.00 | 0.00 | 49 | 1002.2 |
| 20260505201608 | 86 | 199 | 0.0 | 4.0 | 0.00 | 0.00 | 0.00 | 43 | 1002.4 |
| 20260505200024 | 87 | 229 | 0.0 | 5.0 | 0.00 | 0.00 | 0.00 | 49 | 1002.4 |
| 20260505194554 | 87 | 203 | 0.0 | 5.0 | 0.00 | 0.00 | 0.00 | 51 | 1002.5 |
| 20260505193018 | 86 | 206 | 0.0 | 3.0 | 0.00 | 0.00 | 0.00 | 46 | 1002.4 |
| 20260505191608 | 84 | 182 | 0.0 | 3.0 | 0.00 | 0.00 | 0.00 | 42 | 1002.5 |
| 20260505190018 | 84 | 203 | 0.0 | 4.0 | 0.00 | 0.00 | 0.00 | 43 | 1002.3 |
| 20260505184559 | 84 | 193 | 0.0 | 2.0 | 0.00 | 0.00 | 0.00 | 38 | 1002.6 |
| 20260505183024 | 83 | 260 | 1.0 | 4.0 | 0.00 | 0.00 | 0.00 | 31 | 1002.6 |
| 20260505181556 | 82 | 143 | 0.0 | 3.0 | 0.00 | 0.00 | 0.00 | 12 | 1002.8 |
| 20260505180020 | 82 | 211 | 1.0 | 5.0 | 0.00 | 0.00 | 0.00 | 13 | 1002.7 |
| 20260505174603 | 81 | 231 | 1.0 | 6.0 | 0.00 | 0.00 | 0.00 | 4 | 1002.7 |
| 20260505173033 | 80 | 227 | 0.0 | 4.0 | 0.00 | 0.00 | 0.00 | 1 | 1002.7 |
| 20260505171607 | 78 | 117 | 0.0 | 6.0 | 0.00 | 0.00 | 0.00 | 1 | 1002.8 |
| 20260505170030 | 78 | 102 | 0.0 | 4.0 | 0.00 | 0.00 | 0.00 | 1 | 1003.0 |
| 20260505164602 | 78 | 110 | 0.0 | 3.0 | 0.00 | 0.00 | 0.00 | 1 | 1002.8 |
| 20260505163019 | 78 | 93 | 0.0 | 2.0 | 0.00 | 0.00 | 0.00 | 1 | 1002.4 |
| 20260505161608 | 78 | 177 | 0.0 | 3.0 | 0.00 | 0.00 | 0.00 | 1 | 1003.0 |
| 20260505153022 | 76 | 163 | 0.0 | 4.0 | 0.00 | 0.00 | 0.00 | 1 | 1002.3 |
| 20260505151602 | 76 | 249 | 0.0 | 3.0 | 0.00 | 0.00 | 0.00 | 1 | 1002.6 |
| 20260505124510 | 72 | 78 | 1.0 | 4.0 | 0.00 | 0.00 | 0.00 | 1 | 1002.2 |
| 20260505123039 | 72 | 181 | 0.0 | 3.0 | 0.00 | 0.00 | 0.00 | 1 | 1002.2 |
| 20260505121506 | 72 | 41 | 0.0 | 3.0 | 0.00 | 0.00 | 0.00 | 1 | 1002.0 |
| 20260505120041 | 72 | 202 | 0.0 | 2.0 | 0.00 | 0.00 | 0.00 | 1 | 1001.8 |
| 20260505114508 | 71 | 111 | 0.0 | 3.0 | 0.00 | 0.00 | 0.00 | 1 | 1001.8 |
| 20260505113051 | 71 | 103 | 0.0 | 2.0 | 0.00 | 0.00 | 0.00 | 1 | 1001.8 |
| 20260505111508 | 72 | 122 | 0.0 | 2.0 | 0.00 | 0.00 | 0.00 | 1 | 1001.7 |
| 20260505101532 | 72 | 191 | 0.0 | 3.0 | 0.00 | 0.00 | 0.00 | 1 | 1001.7 |
| 20260505094530 | 71 | 203 | 0.0 | 5.0 | 0.00 | 0.00 | 0.00 | 1 | 1001.8 |
| 20260505093106 | 71 | 74 | 0.0 | 3.0 | 0.00 | 0.00 | 0.00 | 1 | 1001.8 |
| 20260505091533 | 71 | 97 | 0.0 | 5.0 | 0.00 | 0.00 | 0.00 | 1 | 1002.1 |
| 20260505090104 | 71 | 126 | 0.0 | 9.0 | 0.00 | 0.00 | 0.00 | 1 | 1002.1 |
| 20260505084515 | 72 | 79 | 0.0 | 2.0 | 0.00 | 0.00 | 0.00 | 1 | 1002.1 |
| 20260505083058 | 72 | 74 | 0.0 | 2.0 | 0.00 | 0.00 | 0.00 | 1 | 1002.2 |
| 20260505081511 | 72 | 201 | 0.0 | 3.0 | 0.00 | 0.00 | 0.00 | 1 | 1002.1 |
| 20260505080052 | 72 | 159 | 0.0 | 3.0 | 0.00 | 0.00 | 0.00 | 1 | 1002.3 |
| 20260505074518 | 72 | 216 | 0.0 | 3.0 | 0.00 | 0.00 | 0.00 | 1 | 1002.4 |
| 20260505073059 | 72 | 219 | 0.0 | 3.0 | 0.00 | 0.00 | 0.00 | 1 | 1002.7 |
| 20260505071522 | 72 | 312 | 0.0 | 2.0 | 0.00 | 0.00 | 0.00 | 1 | 1002.9 |
| 20260505070111 | 72 | 52 | 0.0 | 4.0 | 0.00 | 0.00 | 0.00 | 1 | 1003.0 |
| 20260505064540 | 72 | 108 | 1.0 | 8.0 | 0.00 | 0.00 | 0.00 | 1 | 1003.3 |
| 20260505063002 | 72 | 174 | 0.0 | 3.0 | 0.00 | 0.00 | 0.00 | 1 | 1003.4 |
| 20260505061541 | 72 | 93 | 0.0 | 7.0 | 0.00 | 0.00 | 0.00 | 1 | 1003.5 |
| 20260505060003 | 73 | 87 | 0.0 | 3.0 | 0.00 | 0.00 | 0.00 | 1 | 1003.4 |
| 20260505054546 | 73 | 104 | 1.0 | 5.0 | 0.00 | 0.00 | 0.00 | 1 | 1003.4 |
| 20260505053004 | 73 | 115 | 1.0 | 8.0 | 0.00 | 0.00 | 0.00 | 1 | 1003.7 |
| 20260505051545 | 73 | 93 | 0.0 | 3.0 | 0.00 | 0.00 | 0.00 | 1 | 1003.9 |
| 20260505041549 | 73 | 81 | 0.0 | 8.0 | 0.00 | 0.00 | 0.00 | 1 | 1004.0 |
| 20260505040016 | 73 | 102 | 1.0 | 6.0 | 0.00 | 0.00 | 0.00 | 1 | 1004.1 |
| 20260505034551 | 73 | 64 | 0.0 | 8.0 | 0.00 | 0.00 | 0.00 | 1 | 1004.1 |
| 20260505033022 | 73 | 106 | 1.0 | 6.0 | 0.00 | 0.00 | 0.00 | 2 | 1004.2 |
| 20260505031559 | 73 | 287 | 0.0 | 7.0 | 0.00 | 0.00 | 0.00 | 6 | 1004.2 |
| 20260505030008 | 74 | 56 | 1.0 | 4.0 | 0.00 | 0.00 | 0.00 | 9 | 1004.1 |
| 20260505024549 | 74 | 154 | 0.0 | 3.0 | 0.00 | 0.00 | 0.00 | 13 | 1004.0 |
| 20260505023105 | 74 | 131 | 0.0 | 8.0 | 0.00 | 0.00 | 0.00 | 16 | 1004.0 |
| 20260505021535 | 74 | 103 | 0.0 | 3.0 | 0.00 | 0.00 | 0.00 | 19 | 1003.9 |
| 20260505020110 | 74 | 130 | 0.0 | 4.0 | 0.00 | 0.00 | 0.00 | 21 | 1003.9 |
| 20260505014536 | 75 | 44 | 0.0 | 6.0 | 0.00 | 0.00 | 0.00 | 24 | 1003.9 |
| 20260505013104 | 75 | 347 | 0.0 | 5.0 | 0.00 | 0.00 | 0.00 | 28 | 1004.0 |
| 20260505011528 | 75 | 20 | 0.0 | 5.0 | 0.00 | 0.00 | 0.00 | 32 | 1004.0 |
| 20260505010105 | 76 | 100 | 0.0 | 6.0 | 0.00 | 0.00 | 0.00 | 36 | 1003.9 |
| 20260505004522 | 76 | 147 | 1.0 | 4.0 | 0.00 | 0.00 | 0.00 | 40 | 1003.9 |
| 20260505003057 | 77 | 104 | 0.0 | 4.0 | 0.00 | 0.00 | 0.00 | 41 | 1004.0 |
| 20260505001516 | 77 | 106 | 0.0 | 8.0 | 0.00 | 0.00 | 0.00 | 46 | 1004.2 |
| 20260505000055 | 78 | 14 | 0.0 | 3.0 | 0.00 | 0.00 | 0.00 | 46 | 1004.0 |
| 20260504234517 | 78 | 147 | 0.0 | 4.0 | 0.00 | 0.00 | 0.00 | 47 | 1004.0 |
| 20260504233057 | 78 | 99 | 1.0 | 5.0 | 0.00 | 0.00 | 0.00 | 49 | 1004.2 |
| 20260504231524 | 79 | 100 | 1.0 | 4.0 | 0.00 | 0.00 | 0.00 | 51 | 1004.3 |
| 20260504224536 | 80 | 94 | 1.0 | 8.0 | 0.00 | 0.00 | 0.00 | 52 | 1004.7 |